| time (UTC) | temp F | wind direction | speed knots | gust knots | rain 1hr in | rain 24hr in | rain mn in | humidity % | barometer mb |
| 20260509211532 | 48 | 24 | 0.9 | 2.6 | 0.14 | 0.30 | 0.30 | 92 | 1012.5 |
| 20260509210533 | 48 | 24 | 0.9 | 2.6 | 0.09 | 0.25 | 0.25 | 91 | 1012.5 |
| 20260509210008 | 48 | 31 | 0.9 | 2.6 | 0.06 | 0.22 | 0.22 | 91 | 1012.4 |
| 20260509204523 | 48 | 29 | 0.9 | 2.6 | 0.05 | 0.20 | 0.20 | 91 | 1012.4 |
| 20260509203523 | 48 | 42 | 0.9 | 2.6 | 0.03 | 0.18 | 0.18 | 91 | 1012.4 |
| 20260509202522 | 48 | 42 | 0.9 | 2.6 | 0.01 | 0.16 | 0.17 | 91 | 1012.3 |
| 20260509201523 | 48 | 42 | 1.7 | 4.3 | 0.01 | 0.16 | 0.16 | 91 | 1012.4 |
| 20260509200520 | 49 | 50 | 0.9 | 2.6 | 0.01 | 0.16 | 0.16 | 91 | 1012.4 |
| 20260509195522 | 49 | 50 | 0.9 | 2.6 | 0.00 | 0.15 | 0.16 | 91 | 1012.6 |
| 20260509194520 | 49 | 34 | 0.9 | 2.6 | 0.00 | 0.15 | 0.15 | 91 | 1012.3 |
| 20260509193520 | 49 | 34 | 0.9 | 2.6 | 0.00 | 0.15 | 0.15 | 91 | 1012.3 |
| 20260509193004 | 49 | 4 | 0.9 | 5.2 | 0.00 | 0.15 | 0.15 | 91 | 1012.1 |
| 20260509191521 | 49 | 358 | 1.7 | 5.2 | 0.00 | 0.15 | 0.15 | 91 | 1012.7 |
| 20260509190510 | 48 | 54 | 0.9 | 2.6 | 0.00 | 0.15 | 0.15 | 91 | 1012.7 |
| 20260509185510 | 48 | 52 | 2.6 | 5.2 | 0.00 | 0.15 | 0.15 | 91 | 1012.3 |
| 20260509184511 | 48 | 69 | 1.7 | 3.5 | 0.01 | 0.15 | 0.15 | 91 | 1012.8 |
| 20260509183510 | 48 | 72 | 1.7 | 3.5 | 0.02 | 0.15 | 0.15 | 91 | 1012.8 |
| 20260509182511 | 47 | 354 | 0.0 | 4.3 | 0.02 | 0.15 | 0.15 | 91 | 1013.0 |
| 20260509181511 | 47 | 301 | 0.0 | 0.0 | 0.03 | 0.15 | 0.15 | 91 | 1013.3 |
| 20260509180456 | 47 | 301 | 0.0 | 0.0 | 0.03 | 0.15 | 0.15 | 91 | 1013.3 |
| 20260509175457 | 47 | 301 | 0.0 | 0.0 | 0.03 | 0.15 | 0.15 | 91 | 1013.4 |
| 20260509174457 | 47 | 83 | 0.0 | 0.0 | 0.03 | 0.14 | 0.14 | 91 | 1013.4 |
| 20260509173455 | 47 | 42 | 0.0 | 0.0 | 0.03 | 0.13 | 0.14 | 91 | 1013.4 |
| 20260509172455 | 47 | 35 | 0.0 | 0.0 | 0.03 | 0.13 | 0.13 | 91 | 1013.4 |
| 20260509171453 | 46 | 33 | 0.0 | 0.0 | 0.03 | 0.12 | 0.12 | 91 | 1013.9 |
| 20260509170452 | 46 | 301 | 0.0 | 0.0 | 0.04 | 0.12 | 0.12 | 90 | 1013.9 |
| 20260509165452 | 46 | 301 | 0.0 | 0.0 | 0.04 | 0.12 | 0.12 | 90 | 1013.9 |
| 20260509164453 | 46 | 301 | 0.0 | 0.0 | 0.03 | 0.11 | 0.11 | 90 | 1014.0 |
| 20260509163452 | 46 | 301 | 0.0 | 0.0 | 0.03 | 0.10 | 0.10 | 90 | 1014.0 |
| 20260509162452 | 46 | 147 | 0.0 | 0.0 | 0.03 | 0.10 | 0.10 | 90 | 1013.9 |
| 20260509161452 | 46 | 301 | 0.0 | 0.0 | 0.02 | 0.09 | 0.09 | 90 | 1013.8 |
| 20260509160940 | 46 | 301 | 0.0 | 0.0 | 0.02 | 0.08 | 0.08 | 90 | 1013.8 |
| 20260509155453 | 46 | 50 | 0.9 | 2.6 | 0.02 | 0.08 | 0.08 | 90 | 1013.9 |
| 20260509154926 | 46 | 11 | 0.9 | 3.5 | 0.02 | 0.08 | 0.08 | 90 | 1014.2 |
| 20260509153450 | 46 | 189 | 0.0 | 0.0 | 0.01 | 0.07 | 0.07 | 90 | 1014.2 |
| 20260509152450 | 45 | 301 | 0.0 | 0.0 | 0.02 | 0.07 | 0.07 | 90 | 1014.4 |
| 20260509151450 | 45 | 187 | 0.0 | 0.0 | 0.03 | 0.07 | 0.07 | 90 | 1014.4 |
| 20260509150448 | 45 | 187 | 0.0 | 0.0 | 0.02 | 0.06 | 0.06 | 90 | 1014.4 |
| 20260509145439 | 45 | 301 | 0.0 | 0.9 | 0.03 | 0.06 | 0.06 | 90 | 1014.6 |
| 20260509144438 | 45 | 301 | 0.0 | 0.0 | 0.04 | 0.06 | 0.06 | 90 | 1014.6 |
| 20260509143436 | 45 | 301 | 0.0 | 0.0 | 0.04 | 0.06 | 0.06 | 91 | 1014.6 |
| 20260509142437 | 44 | 301 | 0.9 | 3.5 | 0.04 | 0.05 | 0.05 | 90 | 1014.9 |
| 20260509141427 | 44 | 190 | 0.0 | 1.7 | 0.03 | 0.04 | 0.04 | 91 | 1014.9 |
| 20260509140427 | 44 | 301 | 0.0 | 0.9 | 0.03 | 0.04 | 0.04 | 91 | 1014.9 |
| 20260509135425 | 44 | 301 | 0.0 | 1.7 | 0.03 | 0.03 | 0.03 | 91 | 1014.8 |
| 20260509134427 | 43 | 301 | 0.0 | 0.9 | 0.02 | 0.02 | 0.02 | 90 | 1014.4 |
| 20260509133426 | 43 | 301 | 0.0 | 0.0 | 0.02 | 0.02 | 0.02 | 90 | 1014.4 |
| 20260509133352 | 42 | 301 | 0.0 | 0.0 | 0.01 | 0.01 | 0.01 | 90 | 1014.4 |
| 20260509131426 | 42 | 301 | 0.0 | 0.0 | 0.01 | 0.01 | 0.01 | 90 | 1014.4 |
| 20260509130424 | 42 | 301 | 0.0 | 0.0 | 0.01 | 0.01 | 0.01 | 90 | 1014.4 |
| 20260509125903 | 42 | 301 | 0.0 | 0.9 | 0.00 | 0.00 | 0.00 | 89 | 1014.5 |
| 20260509124424 | 41 | 301 | 0.0 | 1.7 | 0.00 | 0.00 | 0.00 | 89 | 1014.7 |
| 20260509123424 | 41 | 301 | 0.0 | 0.0 | 0.00 | 0.00 | 0.00 | 89 | 1014.7 |
| 20260509122423 | 41 | 301 | 0.0 | 0.0 | 0.00 | 0.00 | 0.00 | 89 | 1014.8 |
| 20260509121412 | 40 | 301 | 0.0 | 0.0 | 0.00 | 0.00 | 0.00 | 89 | 1014.8 |
| 20260509120412 | 40 | 301 | 0.0 | 0.0 | 0.00 | 0.00 | 0.00 | 90 | 1014.8 |
| 20260509115412 | 39 | 301 | 0.0 | 1.7 | 0.00 | 0.00 | 0.00 | 90 | 1014.9 |
| 20260509114412 | 38 | 301 | 0.0 | 0.9 | 0.00 | 0.00 | 0.00 | 90 | 1014.9 |
| 20260509113410 | 38 | 187 | 0.0 | 1.7 | 0.00 | 0.00 | 0.00 | 90 | 1014.9 |
| 20260509112410 | 38 | 301 | 0.9 | 2.6 | 0.00 | 0.00 | 0.00 | 90 | 1014.7 |
| 20260509111355 | 37 | 301 | 0.0 | 0.0 | 0.00 | 0.00 | 0.00 | 90 | 1014.9 |
| 20260509110829 | 36 | 301 | 0.0 | 0.0 | 0.00 | 0.00 | 0.00 | 89 | 1014.9 |
| 20260509105357 | 35 | 301 | 0.0 | 0.0 | 0.00 | 0.00 | 0.00 | 89 | 1014.6 |
| 20260509104356 | 35 | 301 | 0.0 | 0.0 | 0.00 | 0.00 | 0.00 | 89 | 1014.7 |
| 20260509103355 | 35 | 301 | 0.0 | 0.0 | 0.00 | 0.00 | 0.00 | 89 | 1014.7 |
| 20260509102839 | 34 | 109 | 0.0 | 0.0 | 0.00 | 0.00 | 0.00 | 88 | 1014.6 |
| 20260509101353 | 34 | 301 | 0.0 | 0.0 | 0.00 | 0.00 | 0.00 | 88 | 1014.4 |
| 20260509100354 | 33 | 108 | 0.0 | 0.0 | 0.00 | 0.00 | 0.00 | 87 | 1014.4 |
| 20260509095353 | 33 | 109 | 0.0 | 0.0 | 0.00 | 0.00 | 0.00 | 87 | 1014.1 |
| 20260509094837 | 33 | 108 | 0.0 | 0.0 | 0.00 | 0.00 | 0.00 | 87 | 1014.0 |
| 20260509093353 | 33 | 108 | 0.0 | 0.0 | 0.00 | 0.00 | 0.00 | 87 | 1014.0 |
| 20260509092355 | 33 | 109 | 0.0 | 0.0 | 0.00 | 0.00 | 0.00 | 87 | 1013.9 |
| 20260509091351 | 33 | 109 | 0.0 | 0.0 | 0.00 | 0.00 | 0.00 | 86 | 1013.9 |
| 20260509090351 | 33 | 109 | 0.0 | 0.0 | 0.00 | 0.00 | 0.00 | 86 | 1013.9 |
| 20260509085351 | 34 | 109 | 0.0 | 0.0 | 0.00 | 0.00 | 0.00 | 86 | 1013.9 |
| 20260509084351 | 34 | 109 | 0.0 | 0.0 | 0.00 | 0.00 | 0.00 | 86 | 1013.6 |
| 20260509084318 | 34 | 109 | 0.0 | 0.0 | 0.00 | 0.00 | 0.00 | 86 | 1013.6 |
| 20260509082352 | 34 | 109 | 0.0 | 0.0 | 0.00 | 0.00 | 0.00 | 86 | 1013.7 |
| 20260509081345 | 34 | 301 | 0.0 | 0.0 | 0.00 | 0.00 | 0.00 | 85 | 1013.8 |
| 20260509080824 | 35 | 301 | 0.0 | 0.0 | 0.00 | 0.00 | 0.00 | 85 | 1013.8 |
| 20260509075346 | 35 | 109 | 0.0 | 0.0 | 0.00 | 0.00 | 0.00 | 85 | 1013.9 |
| 20260509074345 | 35 | 109 | 0.0 | 0.0 | 0.00 | 0.00 | 0.00 | 85 | 1013.6 |
| 20260509073346 | 35 | 109 | 0.0 | 0.0 | 0.00 | 0.00 | 0.00 | 84 | 1013.6 |
| 20260509072343 | 35 | 109 | 0.0 | 0.0 | 0.00 | 0.00 | 0.00 | 84 | 1013.7 |
| 20260509071343 | 36 | 109 | 0.0 | 0.0 | 0.00 | 0.00 | 0.00 | 84 | 1013.6 |
| 20260509070823 | 36 | 108 | 0.0 | 0.0 | 0.00 | 0.00 | 0.00 | 84 | 1013.6 |
| 20260509065344 | 36 | 109 | 0.0 | 0.0 | 0.00 | 0.00 | 0.00 | 84 | 1013.7 |
| 20260509064345 | 36 | 109 | 0.0 | 0.0 | 0.00 | 0.00 | 0.00 | 84 | 1013.4 |
| 20260509063344 | 37 | 301 | 0.0 | 0.0 | 0.00 | 0.00 | 0.00 | 83 | 1013.4 |
| 20260509062344 | 37 | 301 | 0.0 | 0.0 | 0.00 | 0.00 | 0.00 | 83 | 1013.4 |
| 20260509061339 | 37 | 109 | 0.0 | 0.0 | 0.00 | 0.00 | 0.00 | 83 | 1013.5 |
| 20260509060339 | 37 | 301 | 0.0 | 0.0 | 0.00 | 0.00 | 0.00 | 82 | 1013.5 |
| 20260509055816 | 37 | 301 | 0.0 | 0.0 | 0.00 | 0.00 | 0.00 | 82 | 1013.7 |
| 20260509054337 | 37 | 109 | 0.0 | 0.0 | 0.00 | 0.00 | 0.00 | 82 | 1013.8 |
| 20260509053338 | 37 | 109 | 0.0 | 0.0 | 0.00 | 0.00 | 0.00 | 82 | 1013.8 |
| 20260509052338 | 38 | 109 | 0.0 | 0.0 | 0.00 | 0.00 | 0.00 | 81 | 1013.6 |
| 20260509051332 | 38 | 109 | 0.0 | 0.0 | 0.00 | 0.00 | 0.00 | 81 | 1013.4 |
| 20260509050326 | 38 | 108 | 0.0 | 0.0 | 0.00 | 0.00 | 0.00 | 80 | 1013.4 |
| 20260509045808 | 38 | 108 | 0.0 | 0.0 | 0.00 | 0.00 | 0.00 | 81 | 1013.4 |
| 20260509044326 | 38 | 108 | 0.9 | 1.7 | 0.00 | 0.00 | 0.00 | 81 | 1013.4 |
| 20260509043324 | 39 | 108 | 0.0 | 1.7 | 0.00 | 0.00 | 0.00 | 80 | 1013.4 |
| 20260509042326 | 39 | 108 | 0.9 | 1.7 | 0.00 | 0.00 | 0.00 | 79 | 1013.4 |
| 20260509041325 | 39 | 108 | 0.0 | 2.6 | 0.00 | 0.00 | 0.00 | 77 | 1013.2 |
| 20260509041238 | 40 | 108 | 0.0 | 0.0 | 0.00 | 0.00 | 0.00 | 75 | 1013.2 |
| 20260509035317 | 40 | 108 | 0.0 | 0.0 | 0.00 | 0.00 | 0.00 | 75 | 1013.0 |
| 20260509034317 | 40 | 108 | 0.0 | 0.0 | 0.00 | 0.00 | 0.00 | 74 | 1013.0 |
| 20260509033257 | 41 | 108 | 0.0 | 0.0 | 0.00 | 0.00 | 0.00 | 74 | 1013.0 |
| 20260509032244 | 41 | 108 | 0.0 | 0.0 | 0.00 | 0.00 | 0.00 | 73 | 1012.9 |
| 20260509031245 | 42 | 301 | 0.0 | 0.0 | 0.00 | 0.00 | 0.00 | 72 | 1012.8 |
| 20260509030243 | 42 | 109 | 0.0 | 0.0 | 0.00 | 0.00 | 0.00 | 71 | 1012.8 |
| 20260509025239 | 43 | 301 | 0.0 | 0.0 | 0.00 | 0.00 | 0.00 | 69 | 1012.8 |
| 20260509024237 | 43 | 301 | 0.0 | 0.0 | 0.00 | 0.00 | 0.00 | 68 | 1012.8 |
| 20260509023235 | 44 | 109 | 0.0 | 0.0 | 0.00 | 0.00 | 0.00 | 67 | 1012.8 |
| 20260509022224 | 44 | 109 | 0.0 | 0.0 | 0.00 | 0.00 | 0.00 | 66 | 1012.8 |
| 20260509021222 | 44 | 109 | 0.0 | 1.7 | 0.00 | 0.00 | 0.00 | 66 | 1012.3 |
| 20260509020219 | 45 | 301 | 0.0 | 1.7 | 0.00 | 0.00 | 0.00 | 66 | 1012.3 |
| 20260509015221 | 45 | 301 | 0.0 | 0.0 | 0.00 | 0.00 | 0.00 | 64 | 1012.2 |
| 20260509014700 | 46 | 108 | 0.0 | 0.0 | 0.00 | 0.00 | 0.00 | 64 | 1012.0 |
| 20260509013216 | 47 | 301 | 0.0 | 0.0 | 0.00 | 0.00 | 0.00 | 61 | 1012.0 |
| 20260509012216 | 47 | 301 | 0.0 | 0.0 | 0.00 | 0.00 | 0.00 | 60 | 1011.8 |
| 20260509011216 | 48 | 301 | 0.0 | 0.0 | 0.00 | 0.00 | 0.00 | 58 | 1011.4 |
| 20260509010216 | 48 | 301 | 0.0 | 0.0 | 0.00 | 0.00 | 0.00 | 57 | 1011.4 |
| 20260509005214 | 49 | 301 | 0.0 | 0.0 | 0.00 | 0.00 | 0.00 | 56 | 1011.2 |
| 20260509004208 | 49 | 108 | 0.0 | 0.0 | 0.00 | 0.00 | 0.00 | 54 | 1010.7 |
| 20260509003208 | 50 | 301 | 0.0 | 0.0 | 0.00 | 0.00 | 0.00 | 54 | 1010.7 |
| 20260509002207 | 51 | 301 | 0.0 | 0.0 | 0.00 | 0.00 | 0.00 | 52 | 1010.5 |
| 20260509001209 | 51 | 301 | 0.0 | 0.0 | 0.00 | 0.00 | 0.00 | 51 | 1010.3 |
| 20260509000208 | 52 | 301 | 0.0 | 2.6 | 0.00 | 0.00 | 0.00 | 50 | 1010.3 |
| 20260508235208 | 53 | 301 | 0.0 | 1.7 | 0.00 | 0.00 | 0.00 | 49 | 1010.1 |
| 20260508234647 | 53 | 301 | 1.7 | 7.0 | 0.00 | 0.00 | 0.00 | 47 | 1009.7 |
| 20260508233640 | 53 | 301 | 0.9 | 1.7 | 0.00 | 0.00 | 0.00 | 46 | 1009.7 |
| 20260508232205 | 54 | 273 | 1.7 | 5.2 | 0.00 | 0.00 | 0.00 | 44 | 1009.6 |
| 20260508231203 | 54 | 301 | 0.9 | 4.3 | 0.00 | 0.00 | 0.00 | 43 | 1009.2 |
| 20260508230202 | 55 | 301 | 1.7 | 3.5 | 0.00 | 0.00 | 0.00 | 44 | 1009.2 |
| 20260508225641 | 55 | 283 | 1.7 | 5.2 | 0.00 | 0.00 | 0.00 | 43 | 1009.1 |
| 20260508224157 | 55 | 301 | 1.7 | 7.0 | 0.00 | 0.00 | 0.00 | 43 | 1009.1 |
| 20260508223158 | 56 | 301 | 0.9 | 3.5 | 0.00 | 0.00 | 0.00 | 45 | 1009.1 |
| 20260508222155 | 56 | 301 | 1.7 | 3.5 | 0.00 | 0.00 | 0.00 | 43 | 1009.1 |
| 20260508221156 | 56 | 88 | 1.7 | 4.3 | 0.00 | 0.00 | 0.00 | 42 | 1009.0 |
| 20260508220156 | 56 | 301 | 0.9 | 4.3 | 0.00 | 0.00 | 0.00 | 45 | 1009.0 |
| 20260508215156 | 57 | 301 | 2.6 | 7.0 | 0.00 | 0.00 | 0.00 | 41 | 1009.0 |
| 20260508214156 | 57 | 260 | 1.7 | 5.2 | 0.00 | 0.00 | 0.00 | 41 | 1008.8 |
| 20260508213629 | 58 | 301 | 2.6 | 7.8 | 0.00 | 0.00 | 0.00 | 42 | 1008.8 |